This demonstration page uses our WeatherBlox Daily Observations layout. Learn more.

39.92423, -83.80882

Hourly Observations for July 6, 2016

Temp ( °F °C ) Dew Point ( °F °C ) Humidity (%) Winds ( mph kmh ) Pressure ( in mb ) Visibility ( mi km ) Precip ( " mm )
12:56 am 00:56 Clear 66 18.8 65 18.3 97 97 Calm 29.95 1014 10 16.0934 0 0
1:56 am 01:56 Clear 67 19.4 67 19.4 100 100 SSW 5 7 29.95 1014 10 16.0934 0 0
2:56 am 02:56 Clear 65 18.3 65 18.3 100 100 Calm 29.96 1015 10 16.0934 0 0
3:56 am 03:56 Cloudy 66 18.8 66 18.8 100 100 Calm 29.96 1014 10 16.0934 0 0
4:56 am 04:56 Partly Cloudy 67 19.4 67 19.4 100 100 S 3 6 29.94 1014 10 16.0934 0 0
5:56 am 05:56 Clear 68 20 67 19.4 96 96 SSE 3 6 29.94 1014 10 16.0934 0 0
6:56 am 06:56 Partly Cloudy 68 20 68 20 100 100 S 3 6 29.94 1014 10 16.0934 0 0
7:56 am 07:56 Sunny 72 22.2 71 21.6 96 96 S 6 9 29.93 1014 10 16.0934 0 0
8:56 am 08:56 Sunny 76 24.4 72 22.2 88 88 S 8 13 29.94 1014 10 16.0934 0 0
9:56 am 09:56 Mostly Cloudy 78 25.5 73 22.7 85 85 SSW 7 11 29.93 1014 10 16.0934 0 0
10:56 am 10:56 Sunny 82 27.7 76 24.4 82 82 SW 14 22 29.92 1013 10 16.0934 0 0
11:56 am 11:56 Mostly Sunny 84 28.8 77 25 80 80 SSW 10 17 29.93 1013 10 16.0934 0 0
12:56 pm 12:56 Mostly Cloudy with Heavy Rain 83 28.3 78 25.5 85 85 SSW 7 11 29.91 1013 1.5 2.41401 0.04 1.016
1:01 pm 13:01 Mostly Cloudy with Nearby Thunderstorms 82 28 79 26 89 89 SSW 14 22 29.88 1012 2 3.21868 0 0.0254
1:06 pm 13:06 Mostly Cloudy with Nearby Thunderstorms 82 28 75 24 79 79 SW 30 48 29.88 1012 10 16.0934 0 0.0254
1:19 pm 13:19 Mostly Cloudy with Mist and Fog 73 23 72 22 94 94 WSW 15 24 29.91 1013 1.75 2.816345 0.06 1.524
1:26 pm 13:26 Mostly Cloudy with Heavy Rain 73 23 72 22 94 94 WSW 17 28 29.91 1013 3 4.82802 0.06 1.524
1:56 pm 13:56 Partly Cloudy with Nearby Thunderstorms 72 22.2 69 20.5 90 90 SSW 12 19 29.89 1012 10 16.0934 0.06 1.524
2:20 pm 14:20 Partly Cloudy with Light Rain 72 22 72 22 100 100 SW 6 9 29.88 1012 10 16.0934 0.01 0.254
2:56 pm 14:56 Mostly Sunny 73 22.7 71 21.6 94 94 S 8 13 29.84 1011 10 16.0934 0.01 0.254
3:56 pm 15:56 Sunny 80 26.6 73 22.7 79 79 SSW 7 11 29.85 1011 10 16.0934 0 0
4:56 pm 16:56 Sunny 84 28.8 72 22.2 68 68 SSW 14 22 29.86 1011 10 16.0934 0 0
5:56 pm 17:56 Sunny 86 30 73 22.7 65 65 WSW 12 19 29.86 1011 10 16.0934 0 0
6:56 pm 18:56 Sunny 86 30 71 21.6 61 61 WSW 13 20 29.86 1011 10 16.0934 0 0
7:56 pm 19:56 Sunny 82 27.7 71 21.6 69 69 WSW 10 17 29.87 1012 10 16.0934 0 0
8:56 pm 20:56 Sunny 79 26.1 73 22.7 82 82 WSW 5 7 29.86 1011 10 16.0934 0 0
9:56 pm 21:56 Clear 76 24.4 73 22.7 90 90 WSW 6 9 29.86 1011 10 16.0934 0 0
10:56 pm 22:56 Clear 74 23.3 73 22.7 96 96 SW 6 9 29.86 1011 10 16.0934 0 0
11:56 pm 23:56 Clear 73 22.7 72 22.2 97 97 SW 5 7 29.88 1012 10 16.0934 0 0

Powered by AerisWeather